Location: Azul
(36.7830°S, 59.8500°W)
Time: 00:18:30
(UTC-03:00)

DELFI C3 - Pass Details

Date: 24 October 2021
Orbit: 529 x 543 km, 97.4° (Epoch: 30 November)

Event Time Altitude Azimuth Distance (km) Brightness Sun altitude
Rises 21:24:22 0° 178° (S) 2,739 ? -22.3°
Reaches altitude 10° 21:26:37 10° 186° (S) 1,835 ? -22.7°
Maximum altitude 21:30:16 36° 253° (WSW) 877 ? -23.3°
Drops below altitude 10° 21:33:51 10° 320° (NW) 1,801 ? -23.8°
Enters shadow 21:34:02 - 321° (NW) 1,871 ? -23.9°
